Time,TemperatureF,DewpointF,PressureIn,WindDirection,WindDirectionDegrees,WindSpeedMPH,WindSpeedGustMPH,Humidity,HourlyPrecipIn,Conditions,Clouds,dailyrainin,SolarRadiationWatts/m^2,SoftwareType,DateUTC
2013-06-13 00:01:00,64.6,37.0,29.73,South,180,5.2,5.2,36,0.00,CLR,OVC,0.00,0.0,WeatherDisplay:10.37,2013-06-13 07:01:00,
2013-06-13 00:06:00,64.6,37.0,29.73,SSE,158,3.8,3.8,36,0.00,CLR,OVC,0.00,0.0,WeatherDisplay:10.37,2013-06-13 07:06:00,
2013-06-13 00:11:00,64.6,37.0,29.73,SSE,158,3.8,3.8,36,0.00,CLR,OVC,0.00,0.0,WeatherDisplay:10.37,2013-06-13 07:11:00,
2013-06-13 00:16:00,64.0,37.9,29.73,NE,45,0.0,1.0,38,0.00,CLR,OVC,0.00,0.0,WeatherDisplay:10.37,2013-06-13 07:16:00,
2013-06-13 00:21:00,63.9,37.7,29.73,West,270,2.3,2.3,38,0.00,CLR,OVC,0.00,0.0,WeatherDisplay:10.37,2013-06-13 07:21:00,
2013-06-13 00:26:00,63.7,37.6,29.74,ENE,68,1.2,1.2,38,0.00,CLR,OVC,0.00,0.0,WeatherDisplay:10.37,2013-06-13 07:26:00,
2013-06-13 00:31:00,63.3,37.9,29.74,South,180,2.3,2.3,39,0.00,CLR,OVC,0.00,0.0,WeatherDisplay:10.37,2013-06-13 07:31:00,
2013-06-13 00:36:00,63.1,37.8,29.74,NW,315,0.0,1.2,39,0.00,CLR,OVC,0.00,0.0,WeatherDisplay:10.37,2013-06-13 07:36:00,
2013-06-13 00:41:00,63.0,37.6,29.74,South,180,1.2,1.2,39,0.00,CLR,OVC,0.00,0.0,WeatherDisplay:10.37,2013-06-13 07:41:00,
2013-06-13 00:46:00,63.0,37.6,29.73,ESE,112,2.3,2.3,39,0.00,CLR,OVC,0.00,0.0,WeatherDisplay:10.37,2013-06-13 07:46:00,
2013-06-13 00:51:00,62.6,37.3,29.73,NNE,22,0.0,0.3,39,0.00,CLR,OVC,0.00,0.0,WeatherDisplay:10.37,2013-06-13 07:51:00,
2013-06-13 00:56:00,62.6,37.3,29.73,South,180,0.0,0.2,39,0.00,CLR,OVC,0.00,0.0,WeatherDisplay:10.37,2013-06-13 07:56:00,
2013-06-13 01:01:00,62.2,37.6,29.73,SE,135,2.3,2.3,40,0.00,CLR,OVC,0.00,0.0,WeatherDisplay:10.37,2013-06-13 08:01:00,
2013-06-13 01:06:00,62.2,37.6,29.74,SSE,158,0.0,0.6,40,0.00,CLR,OVC,0.00,0.0,WeatherDisplay:10.37,2013-06-13 08:06:00,
2013-06-13 01:11:00,61.9,37.3,29.74,South,180,2.3,2.3,40,0.00,CLR,OVC,0.00,0.0,WeatherDisplay:10.37,2013-06-13 08:11:00,
2013-06-13 01:16:00,61.7,37.1,29.74,ESE,112,1.2,1.2,40,0.00,CLR,OVC,0.00,0.0,WeatherDisplay:10.37,2013-06-13 08:16:00,
2013-06-13 01:21:00,61.7,37.1,29.74,SE,135,0.0,0.6,40,0.00,CLR,OVC,0.00,0.0,WeatherDisplay:10.37,2013-06-13 08:21:00,
2013-06-13 01:26:00,61.7,37.1,29.74,SW,225,0.0,0.2,40,0.00,CLR,OVC,0.00,0.0,WeatherDisplay:10.37,2013-06-13 08:26:00,
2013-06-13 01:31:00,61.5,37.0,29.74,NW,315,0.0,0.2,40,0.00,CLR,OVC,0.00,0.0,WeatherDisplay:10.37,2013-06-13 08:31:00,
2013-06-13 01:36:00,61.3,36.8,29.74,SE,135,1.2,1.2,40,0.00,CLR,OVC,0.00,0.0,WeatherDisplay:10.37,2013-06-13 08:36:00,
2013-06-13 01:41:00,61.2,37.3,29.74,East,90,2.3,2.3,41,0.00,CLR,OVC,0.00,0.0,WeatherDisplay:10.37,2013-06-13 08:41:00,
2013-06-13 01:46:00,60.8,37.5,29.75,ESE,112,1.2,1.2,42,0.00,CLR,OVC,0.00,0.0,WeatherDisplay:10.37,2013-06-13 08:46:00,
2013-06-13 01:51:00,60.8,37.5,29.75,SW,225,0.0,0.6,42,0.00,CLR,OVC,0.00,0.0,WeatherDisplay:10.37,2013-06-13 08:51:00,
2013-06-13 01:56:00,60.6,38.0,29.75,SW,225,3.5,3.5,43,0.00,CLR,OVC,0.00,0.0,WeatherDisplay:10.37,2013-06-13 08:56:00,
2013-06-13 02:01:00,60.6,38.0,29.75,South,180,3.5,3.5,43,0.00,CLR,OVC,0.00,0.0,WeatherDisplay:10.37,2013-06-13 09:01:00,
2013-06-13 02:06:00,60.4,38.4,29.75,SW,225,1.2,1.2,44,0.00,CLR,OVC,0.00,0.0,WeatherDisplay:10.37,2013-06-13 09:06:00,
2013-06-13 02:11:00,60.4,38.4,29.75,ENE,68,0.0,0.6,44,0.00,CLR,OVC,0.00,0.0,WeatherDisplay:10.37,2013-06-13 09:11:00,
2013-06-13 02:16:00,60.4,38.4,29.75,NE,45,0.0,0.6,44,0.00,CLR,OVC,0.00,0.0,WeatherDisplay:10.37,2013-06-13 09:16:00,
2013-06-13 02:21:00,60.4,38.4,29.75,SE,135,0.0,0.2,44,0.00,CLR,OVC,0.00,0.0,WeatherDisplay:10.37,2013-06-13 09:21:00,
2013-06-13 02:26:00,60.4,38.4,29.75,ESE,112,0.0,0.1,44,0.00,CLR,OVC,0.00,0.0,WeatherDisplay:10.37,2013-06-13 09:26:00,
2013-06-13 02:31:00,60.1,38.1,29.75,North,0,0.0,0.3,44,0.00,CLR,OVC,0.00,0.0,WeatherDisplay:10.37,2013-06-13 09:31:00,
2013-06-13 02:36:00,60.1,38.7,29.75,NE,45,2.3,2.3,45,0.00,CLR,OVC,0.00,0.0,WeatherDisplay:10.37,2013-06-13 09:36:00,
2013-06-13 02:41:00,59.9,37.9,29.75,ESE,112,0.0,0.1,44,0.00,CLR,OVC,0.00,0.0,WeatherDisplay:10.37,2013-06-13 09:41:00,
2013-06-13 02:46:00,60.1,38.7,29.75,SSE,158,0.0,0.1,45,0.00,CLR,OVC,0.00,0.0,WeatherDisplay:10.37,2013-06-13 09:46:00,
2013-06-13 02:51:00,60.1,38.7,29.75,SW,225,0.0,0.1,45,0.00,CLR,OVC,0.00,0.0,WeatherDisplay:10.37,2013-06-13 09:51:00,
2013-06-13 02:56:00,59.9,38.5,29.75,SSE,158,1.4,1.4,45,0.00,CLR,OVC,0.00,0.0,WeatherDisplay:10.37,2013-06-13 09:56:00,
2013-06-13 03:01:00,59.7,38.3,29.75,West,270,1.2,1.2,45,0.00,CLR,OVC,0.00,0.0,WeatherDisplay:10.37,2013-06-13 10:01:00,
2013-06-13 03:06:00,59.7,38.3,29.76,ESE,112,0.0,0.3,45,0.00,CLR,OVC,0.00,0.0,WeatherDisplay:10.37,2013-06-13 10:06:00,
2013-06-13 03:11:00,59.7,38.3,29.76,ESE,112,0.0,0.3,45,0.00,CLR,OVC,0.00,0.0,WeatherDisplay:10.37,2013-06-13 10:11:00,
2013-06-13 03:16:00,59.7,38.3,29.76,ESE,112,0.0,0.1,45,0.00,CLR,OVC,0.00,0.0,WeatherDisplay:10.37,2013-06-13 10:16:00,
2013-06-13 03:21:00,59.5,38.2,29.76,NE,45,0.0,0.1,45,0.00,CLR,OVC,0.00,0.0,WeatherDisplay:10.37,2013-06-13 10:21:00,
2013-06-13 03:26:00,59.5,38.7,29.76,ESE,112,0.0,0.0,46,0.00,CLR,OVC,0.00,0.0,WeatherDisplay:10.37,2013-06-13 10:26:00,
2013-06-13 03:31:00,59.5,38.7,29.76,SSW,202,0.0,0.0,46,0.00,CLR,OVC,0.00,0.0,WeatherDisplay:10.37,2013-06-13 10:31:00,
2013-06-13 03:36:00,59.4,38.6,29.76,ENE,68,0.0,0.0,46,0.00,CLR,OVC,0.00,0.0,WeatherDisplay:10.37,2013-06-13 10:36:00,
2013-06-13 03:41:00,58.6,39.0,29.76,ENE,68,0.0,0.0,48,0.00,CLR,OVC,0.00,0.0,WeatherDisplay:10.37,2013-06-13 10:41:00,
2013-06-13 03:46:00,58.8,39.2,29.76,ENE,68,0.0,0.0,48,0.00,CLR,OVC,0.00,0.0,WeatherDisplay:10.37,2013-06-13 10:46:00,
2013-06-13 03:51:00,58.5,38.8,29.76,NNW,338,0.0,0.0,48,0.00,CLR,OVC,0.00,0.0,WeatherDisplay:10.37,2013-06-13 10:51:00,
2013-06-13 03:56:00,58.6,39.0,29.76,WSW,248,0.0,0.0,48,0.00,CLR,OVC,0.00,0.0,WeatherDisplay:10.37,2013-06-13 10:56:00,
2013-06-13 04:01:00,58.5,38.8,29.76,ESE,112,0.0,0.0,48,0.00,CLR,OVC,0.00,0.0,WeatherDisplay:10.37,2013-06-13 11:01:00,
2013-06-13 04:06:00,58.3,38.7,29.77,ENE,68,0.0,0.0,48,0.00,CLR,OVC,0.00,0.0,WeatherDisplay:10.37,2013-06-13 11:06:00,
2013-06-13 04:11:00,58.3,38.7,29.77,SE,135,0.0,0.0,48,0.00,CLR,OVC,0.00,0.0,WeatherDisplay:10.37,2013-06-13 11:11:00,
2013-06-13 04:16:00,58.3,39.2,29.77,ESE,112,0.0,0.0,49,0.00,CLR,OVC,0.00,0.0,WeatherDisplay:10.37,2013-06-13 11:16:00,
2013-06-13 04:21:00,58.1,39.0,29.77,East,90,0.0,0.0,49,0.00,CLR,OVC,0.00,0.0,WeatherDisplay:10.37,2013-06-13 11:21:00,
2013-06-13 04:26:00,57.9,38.9,29.77,ENE,68,0.0,0.0,49,0.00,CLR,OVC,0.00,0.0,WeatherDisplay:10.37,2013-06-13 11:26:00,
2013-06-13 04:31:00,57.7,38.7,29.77,ENE,68,0.0,0.0,49,0.00,CLR,OVC,0.00,0.0,WeatherDisplay:10.37,2013-06-13 11:31:00,
2013-06-13 04:36:00,57.7,39.2,29.77,North,0,0.0,0.0,50,0.00,CLR,OVC,0.00,0.0,WeatherDisplay:10.37,2013-06-13 11:36:00,
2013-06-13 04:41:00,57.7,39.2,29.77,SE,135,0.0,0.0,50,0.00,CLR,OVC,0.00,0.0,WeatherDisplay:10.37,2013-06-13 11:41:00,
2013-06-13 04:46:00,57.7,39.2,29.78,ESE,112,0.0,0.0,50,0.00,CLR,OVC,0.00,0.0,WeatherDisplay:10.37,2013-06-13 11:46:00,
2013-06-13 04:51:00,57.6,39.0,29.78,ESE,112,0.0,0.0,50,0.00,CLR,OVC,0.00,0.0,WeatherDisplay:10.37,2013-06-13 11:51:00,
2013-06-13 04:56:00,57.6,39.0,29.78,SE,135,0.0,0.0,50,0.00,CLR,OVC,0.00,0.0,WeatherDisplay:10.37,2013-06-13 11:56:00,
2013-06-13 05:01:00,57.4,39.4,29.78,East,90,0.0,0.0,51,0.00,CLR,OVC,0.00,0.0,WeatherDisplay:10.37,2013-06-13 12:01:00,
2013-06-13 05:06:00,57.4,39.4,29.79,NW,315,0.0,0.0,51,0.00,CLR,OVC,0.00,0.0,WeatherDisplay:10.37,2013-06-13 12:06:00,
2013-06-13 05:11:00,57.2,39.7,29.79,East,90,0.0,0.0,52,0.00,CLR,OVC,0.00,0.0,WeatherDisplay:10.37,2013-06-13 12:11:00,
2013-06-13 05:16:00,57.2,39.7,29.79,SE,135,0.0,0.0,52,0.00,CLR,OVC,0.00,0.0,WeatherDisplay:10.37,2013-06-13 12:16:00,
2013-06-13 05:21:00,57.2,39.7,29.79,South,180,0.0,0.0,52,0.00,CLR,OVC,0.00,0.0,WeatherDisplay:10.37,2013-06-13 12:21:00,
2013-06-13 05:26:00,57.0,39.6,29.80,SW,225,0.0,0.0,52,0.00,CLR,OVC,0.00,0.0,WeatherDisplay:10.37,2013-06-13 12:26:00,
2013-06-13 05:31:00,57.0,39.6,29.80,SW,225,0.0,0.0,52,0.00,CLR,OVC,0.00,0.0,WeatherDisplay:10.37,2013-06-13 12:31:00,
2013-06-13 05:36:00,56.8,39.4,29.80,SSW,202,0.0,0.0,52,0.00,CLR,OVC,0.00,0.0,WeatherDisplay:10.37,2013-06-13 12:36:00,
2013-06-13 05:41:00,56.5,39.1,29.80,SW,225,1.2,1.2,52,0.00,CLR,OVC,0.00,0.0,WeatherDisplay:10.37,2013-06-13 12:41:00,
2013-06-13 05:46:00,56.5,39.1,29.81,South,180,0.0,0.2,52,0.00,CLR,OVC,0.00,0.0,WeatherDisplay:10.37,2013-06-13 12:46:00,
2013-06-13 05:51:00,56.5,39.5,29.81,SSE,158,0.0,0.0,53,0.00,CLR,OVC,0.00,0.0,WeatherDisplay:10.37,2013-06-13 12:51:00,
2013-06-13 05:56:00,56.5,39.5,29.81,WSW,248,1.2,0.0,53,0.00,CLR,OVC,0.00,0.0,WeatherDisplay:10.37,2013-06-13 12:56:00,
2013-06-13 06:01:00,56.3,39.4,29.81,WSW,248,2.3,2.3,53,0.00,CLR,OVC,0.00,0.0,WeatherDisplay:10.37,2013-06-13 13:01:00,
2013-06-13 06:06:00,56.3,39.4,29.81,SW,225,2.3,2.3,53,0.00,CLR,OVC,0.00,0.0,WeatherDisplay:10.37,2013-06-13 13:06:00,
2013-06-13 06:11:00,56.3,39.4,29.81,SW,225,2.3,2.3,53,0.00,CLR,OVC,0.00,0.0,WeatherDisplay:10.37,2013-06-13 13:11:00,
2013-06-13 06:16:00,56.3,38.9,29.81,West,270,2.4,2.4,52,0.00,CLR,OVC,0.00,0.0,WeatherDisplay:10.37,2013-06-13 13:16:00,
2013-06-13 06:21:00,56.1,38.7,29.81,West,270,2.3,2.3,52,0.00,CLR,OVC,0.00,0.0,WeatherDisplay:10.37,2013-06-13 13:21:00,
2013-06-13 06:26:00,56.1,39.2,29.82,West,270,2.3,2.3,53,0.00,CLR,OVC,0.00,0.0,WeatherDisplay:10.37,2013-06-13 13:26:00,
2013-06-13 06:31:00,56.3,39.4,29.82,WSW,248,2.5,2.5,53,0.00,CLR,OVC,0.00,0.0,WeatherDisplay:10.37,2013-06-13 13:31:00,
2013-06-13 06:36:00,56.3,39.4,29.82,WSW,248,2.3,2.3,53,0.00,CLR,OVC,0.00,0.0,WeatherDisplay:10.37,2013-06-13 13:36:00,
2013-06-13 06:41:00,56.3,39.4,29.82,WSW,248,4.6,4.6,53,0.00,CLR,OVC,0.00,0.0,WeatherDisplay:10.37,2013-06-13 13:41:00,
2013-06-13 06:46:00,56.3,39.4,29.82,SW,225,2.3,2.3,53,0.00,CLR,OVC,0.00,0.0,WeatherDisplay:10.37,2013-06-13 13:46:00,
2013-06-13 06:51:00,56.5,39.5,29.82,SW,225,3.5,3.5,53,0.00,CLR,OVC,0.00,0.0,WeatherDisplay:10.37,2013-06-13 13:51:00,
2013-06-13 06:56:00,56.7,39.7,29.82,WSW,248,2.3,2.3,53,0.00,CLR,OVC,0.00,0.0,WeatherDisplay:10.37,2013-06-13 13:56:00,
2013-06-13 07:01:00,56.8,39.9,29.82,WSW,248,2.3,2.3,53,0.00,CLR,OVC,0.00,0.0,WeatherDisplay:10.37,2013-06-13 14:01:00,
2013-06-13 07:06:00,57.0,40.0,29.83,SW,225,2.3,2.3,53,0.00,CLR,OVC,0.00,0.0,WeatherDisplay:10.37,2013-06-13 14:06:00,
2013-06-13 07:11:00,57.2,40.2,29.83,SE,135,2.3,2.3,53,0.00,CLR,OVC,0.00,0.0,WeatherDisplay:10.37,2013-06-13 14:11:00,
2013-06-13 07:16:00,57.4,40.4,29.83,NW,315,1.2,1.7,53,0.00,CLR,OVC,0.00,0.0,WeatherDisplay:10.37,2013-06-13 14:16:00,
2013-06-13 07:21:00,58.1,41.0,29.83,WSW,248,2.3,2.3,53,0.00,CLR,OVC,0.00,0.0,WeatherDisplay:10.37,2013-06-13 14:21:00,
2013-06-13 07:26:00,58.5,41.4,29.83,SW,225,1.3,1.6,53,0.00,CLR,OVC,0.00,0.0,WeatherDisplay:10.37,2013-06-13 14:26:00,
2013-06-13 07:31:00,59.7,42.1,29.83,WSW,248,1.2,1.2,52,0.00,CLR,OVC,0.00,0.0,WeatherDisplay:10.37,2013-06-13 14:31:00,
2013-06-13 07:36:00,60.1,42.4,29.83,NW,315,1.2,1.2,52,0.00,CLR,OVC,0.00,0.0,WeatherDisplay:10.37,2013-06-13 14:36:00,
2013-06-13 07:41:00,60.6,43.4,29.83,West,270,2.3,2.3,53,0.00,CLR,OVC,0.00,0.0,WeatherDisplay:10.37,2013-06-13 14:41:00,
2013-06-13 07:46:00,61.5,42.7,29.84,WSW,248,2.3,2.3,50,0.00,CLR,OVC,0.00,0.0,WeatherDisplay:10.37,2013-06-13 14:46:00,
2013-06-13 07:51:00,62.8,43.3,29.84,SW,225,1.2,1.4,49,0.00,CLR,OVC,0.00,0.0,WeatherDisplay:10.37,2013-06-13 14:51:00,
2013-06-13 07:56:00,63.5,43.4,29.84,SSE,158,0.0,1.2,48,0.00,CLR,OVC,0.00,0.0,WeatherDisplay:10.37,2013-06-13 14:56:00,
2013-06-13 08:01:00,64.4,43.7,29.84,North,0,2.3,2.3,47,0.00,CLR,OVC,0.00,0.0,WeatherDisplay:10.37,2013-06-13 15:01:00,
2013-06-13 08:06:00,64.9,43.7,29.84,WNW,292,0.0,0.7,46,0.00,CLR,OVC,0.00,0.0,WeatherDisplay:10.37,2013-06-13 15:06:00,
2013-06-13 08:11:00,66.2,44.2,29.84,SSE,158,1.2,1.2,45,0.00,CLR,OVC,0.00,0.0,WeatherDisplay:10.37,2013-06-13 15:11:00,
2013-06-13 08:16:00,66.9,44.3,29.84,West,270,0.0,0.6,44,0.00,CLR,OVC,0.00,0.0,WeatherDisplay:10.37,2013-06-13 15:16:00,
2013-06-13 08:21:00,67.8,44.5,29.84,SW,225,1.2,1.2,43,0.00,CLR,OVC,0.00,0.0,WeatherDisplay:10.37,2013-06-13 15:21:00,
2013-06-13 08:26:00,68.0,44.0,29.85,NE,45,0.0,0.6,42,0.00,CLR,OVC,0.00,0.0,WeatherDisplay:10.37,2013-06-13 15:26:00,
2013-06-13 08:31:00,68.7,44.7,29.85,ENE,68,2.3,2.3,42,0.00,CLR,OVC,0.00,0.0,WeatherDisplay:10.37,2013-06-13 15:31:00,
2013-06-13 08:36:00,69.3,43.9,29.85,NNW,338,2.3,2.3,40,0.00,CLR,OVC,0.00,0.0,WeatherDisplay:10.37,2013-06-13 15:36:00,
2013-06-13 08:41:00,70.3,44.2,29.85,NW,315,0.0,0.6,39,0.00,CLR,OVC,0.00,0.0,WeatherDisplay:10.37,2013-06-13 15:41:00,
2013-06-13 08:46:00,71.4,44.5,29.85,WNW,292,2.3,2.3,38,0.00,CLR,OVC,0.00,0.0,WeatherDisplay:10.37,2013-06-13 15:46:00,
2013-06-13 08:51:00,72.1,44.4,29.85,NNE,22,2.3,2.3,37,0.00,CLR,OVC,0.00,0.0,WeatherDisplay:10.37,2013-06-13 15:51:00,
2013-06-13 08:56:00,73.0,44.5,29.85,NW,315,2.6,2.6,36,0.00,CLR,OVC,0.00,0.0,WeatherDisplay:10.37,2013-06-13 15:56:00,
2013-06-13 09:01:00,73.8,42.9,29.85,NNE,22,0.0,0.9,33,0.00,CLR,OVC,0.00,0.0,WeatherDisplay:10.37,2013-06-13 16:01:00,
2013-06-13 09:06:00,74.1,40.7,29.86,NNE,22,0.0,1.2,30,0.00,CLR,OVC,0.00,0.0,WeatherDisplay:10.37,2013-06-13 16:06:00,
2013-06-13 09:11:00,74.7,41.2,29.86,NW,315,3.6,3.6,30,0.00,CLR,OVC,0.00,0.0,WeatherDisplay:10.37,2013-06-13 16:11:00,
2013-06-13 09:16:00,75.2,41.6,29.86,West,270,2.3,2.3,30,0.00,CLR,OVC,0.00,0.0,WeatherDisplay:10.37,2013-06-13 16:16:00,
2013-06-13 09:21:00,76.3,41.7,29.86,NNW,338,2.3,2.3,29,0.00,CLR,OVC,0.00,0.0,WeatherDisplay:10.37,2013-06-13 16:21:00,
2013-06-13 09:26:00,77.2,38.6,29.86,NE,45,5.8,5.8,25,0.00,CLR,OVC,0.00,0.0,WeatherDisplay:10.37,2013-06-13 16:26:00,
2013-06-13 09:31:00,77.2,38.6,29.86,WSW,248,2.3,2.3,25,0.00,CLR,OVC,0.00,0.0,WeatherDisplay:10.37,2013-06-13 16:31:00,
2013-06-13 09:36:00,77.5,36.8,29.86,North,0,4.6,4.6,23,0.00,CLR,OVC,0.00,0.0,WeatherDisplay:10.37,2013-06-13 16:36:00,
2013-06-13 09:41:00,78.1,36.1,29.86,NW,315,3.7,3.7,22,0.00,CLR,OVC,0.00,0.0,WeatherDisplay:10.37,2013-06-13 16:41:00,
2013-06-13 09:46:00,79.2,38.2,29.86,North,0,2.3,2.4,23,0.00,CLR,OVC,0.00,0.0,WeatherDisplay:10.37,2013-06-13 16:46:00,
2013-06-13 09:51:00,79.5,37.3,29.86,North,0,3.5,3.5,22,0.00,CLR,OVC,0.00,0.0,WeatherDisplay:10.37,2013-06-13 16:51:00,
2013-06-13 09:56:00,80.8,38.4,29.86,NNW,338,2.4,2.4,22,0.00,CLR,OVC,0.00,0.0,WeatherDisplay:10.37,2013-06-13 16:56:00,
2013-06-13 10:01:00,79.9,36.4,29.86,West,270,3.5,3.5,21,0.00,CLR,OVC,0.00,0.0,WeatherDisplay:10.37,2013-06-13 17:01:00,
2013-06-13 10:06:00,81.3,37.6,29.86,NW,315,4.6,4.6,21,0.00,CLR,OVC,0.00,0.0,WeatherDisplay:10.37,2013-06-13 17:06:00,
2013-06-13 10:11:00,81.7,36.7,29.86,NNW,338,2.3,2.3,20,0.00,CLR,OVC,0.00,0.0,WeatherDisplay:10.37,2013-06-13 17:11:00,
2013-06-13 10:16:00,81.5,32.5,29.86,NE,45,6.9,6.9,17,0.00,CLR,OVC,0.00,0.0,WeatherDisplay:10.37,2013-06-13 17:16:00,
2013-06-13 10:21:00,82.8,33.5,29.86,NNE,22,4.6,4.6,17,0.00,CLR,OVC,0.00,0.0,WeatherDisplay:10.37,2013-06-13 17:21:00,
2013-06-13 10:26:00,82.6,31.8,29.86,NNW,338,4.6,4.6,16,0.00,CLR,OVC,0.00,0.0,WeatherDisplay:10.37,2013-06-13 17:26:00,
2013-06-13 10:31:00,82.0,31.4,29.86,NNE,22,3.6,3.6,16,0.00,CLR,OVC,0.00,0.0,WeatherDisplay:10.37,2013-06-13 17:31:00,
2013-06-13 10:36:00,82.4,28.4,29.86,WSW,248,3.5,3.5,14,0.00,CLR,OVC,0.00,0.0,WeatherDisplay:10.37,2013-06-13 17:36:00,
2013-06-13 10:41:00,82.8,28.7,29.86,North,0,5.8,5.8,14,0.00,CLR,OVC,0.00,0.0,WeatherDisplay:10.37,2013-06-13 17:41:00,
2013-06-13 10:46:00,82.4,30.1,29.87,NW,315,2.3,3.2,15,0.00,CLR,OVC,0.00,0.0,WeatherDisplay:10.37,2013-06-13 17:46:00,
2013-06-13 10:51:00,84.4,31.7,29.87,SW,225,3.5,3.5,15,0.00,CLR,OVC,0.00,0.0,WeatherDisplay:10.37,2013-06-13 17:51:00,
2013-06-13 10:56:00,84.7,32.0,29.87,NNE,22,3.7,3.7,15,0.00,CLR,OVC,0.00,0.0,WeatherDisplay:10.37,2013-06-13 17:56:00,
2013-06-13 11:01:00,84.4,30.0,29.87,ENE,68,3.7,3.7,14,0.00,CLR,OVC,0.00,0.0,WeatherDisplay:10.37,2013-06-13 18:01:00,
2013-06-13 11:06:00,84.6,28.3,29.87,NW,315,4.6,4.6,13,0.00,CLR,OVC,0.00,0.0,WeatherDisplay:10.37,2013-06-13 18:06:00,
2013-06-13 11:11:00,84.4,30.0,29.87,NNE,22,4.6,4.6,14,0.00,CLR,OVC,0.00,0.0,WeatherDisplay:10.37,2013-06-13 18:11:00,
2013-06-13 11:16:00,84.2,28.0,29.87,West,270,5.8,5.8,13,0.00,CLR,OVC,0.00,0.0,WeatherDisplay:10.37,2013-06-13 18:16:00,
2013-06-13 11:21:00,85.5,30.8,29.87,NW,315,5.8,5.8,14,0.00,CLR,OVC,0.00,0.0,WeatherDisplay:10.37,2013-06-13 18:21:00,
2013-06-13 11:26:00,85.1,28.7,29.86,NW,315,4.0,4.0,13,0.00,CLR,OVC,0.00,0.0,WeatherDisplay:10.37,2013-06-13 18:26:00,
2013-06-13 11:31:00,85.8,29.3,29.86,NNE,22,4.6,4.6,13,0.00,CLR,OVC,0.00,0.0,WeatherDisplay:10.37,2013-06-13 18:31:00,
2013-06-13 11:36:00,85.8,29.3,29.86,NE,45,4.6,4.6,13,0.00,CLR,OVC,0.00,0.0,WeatherDisplay:10.37,2013-06-13 18:36:00,
2013-06-13 11:41:00,85.6,29.1,29.86,NE,45,4.6,4.6,13,0.00,CLR,OVC,0.00,0.0,WeatherDisplay:10.37,2013-06-13 18:41:00,
2013-06-13 11:46:00,86.0,27.5,29.86,WSW,248,3.5,3.5,12,0.00,CLR,OVC,0.00,0.0,WeatherDisplay:10.37,2013-06-13 18:46:00,
2013-06-13 11:51:00,86.2,29.6,29.86,NW,315,3.5,3.5,13,0.00,CLR,OVC,0.00,0.0,WeatherDisplay:10.37,2013-06-13 18:51:00,
2013-06-13 11:56:00,85.6,35.8,29.86,NW,315,6.3,6.3,17,0.00,CLR,OVC,0.00,0.0,WeatherDisplay:10.37,2013-06-13 18:56:00,
2013-06-13 12:01:00,84.7,33.6,29.86,NNE,22,4.6,4.6,16,0.00,CLR,OVC,0.00,0.0,WeatherDisplay:10.37,2013-06-13 19:01:00,
2013-06-13 12:06:00,84.7,35.1,29.86,NW,315,2.3,3.6,17,0.00,CLR,OVC,0.00,0.0,WeatherDisplay:10.37,2013-06-13 19:06:00,
2013-06-13 12:11:00,84.7,35.1,29.86,NW,315,2.6,3.6,17,0.00,CLR,OVC,0.00,0.0,WeatherDisplay:10.37,2013-06-13 19:11:00,
2013-06-13 12:16:00,85.6,31.0,29.86,WSW,248,6.2,6.2,14,0.00,CLR,OVC,0.00,0.0,WeatherDisplay:10.37,2013-06-13 19:16:00,
2013-06-13 12:21:00,85.6,29.1,29.86,SW,225,8.1,8.1,13,0.00,CLR,OVC,0.00,0.0,WeatherDisplay:10.37,2013-06-13 19:21:00,
2013-06-13 12:26:00,85.6,29.1,29.85,NNW,338,5.3,5.3,13,0.00,CLR,OVC,0.00,0.0,WeatherDisplay:10.37,2013-06-13 19:26:00,
2013-06-13 12:31:00,86.2,27.6,29.85,NE,45,8.1,8.1,12,0.00,CLR,OVC,0.00,0.0,WeatherDisplay:10.37,2013-06-13 19:31:00,
2013-06-13 12:36:00,86.9,28.2,29.85,ENE,68,4.6,4.6,12,0.00,CLR,OVC,0.00,0.0,WeatherDisplay:10.37,2013-06-13 19:36:00,
2013-06-13 12:41:00,87.1,26.2,29.85,WSW,248,5.8,5.8,11,0.00,CLR,OVC,0.00,0.0,WeatherDisplay:10.37,2013-06-13 19:41:00,
2013-06-13 12:46:00,86.9,26.0,29.85,NW,315,8.7,8.7,11,0.00,CLR,OVC,0.00,0.0,WeatherDisplay:10.37,2013-06-13 19:46:00,
2013-06-13 12:51:00,86.7,25.9,29.85,NW,315,5.8,5.8,11,0.00,CLR,OVC,0.00,0.0,WeatherDisplay:10.37,2013-06-13 19:51:00,
2013-06-13 12:56:00,87.4,26.5,29.85,NNW,338,5.8,5.8,11,0.00,CLR,OVC,0.00,0.0,WeatherDisplay:10.37,2013-06-13 19:56:00,
2013-06-13 13:01:00,87.3,24.0,29.85,West,270,3.5,3.5,10,0.00,CLR,OVC,0.00,0.0,WeatherDisplay:10.37,2013-06-13 20:01:00,
2013-06-13 13:06:00,87.3,24.0,29.85,NE,45,5.8,5.8,10,0.00,CLR,OVC,0.00,0.0,WeatherDisplay:10.37,2013-06-13 20:06:00,
2013-06-13 13:11:00,87.6,24.3,29.85,NNW,338,4.6,4.6,10,0.00,CLR,OVC,0.00,0.0,WeatherDisplay:10.37,2013-06-13 20:11:00,
2013-06-13 13:16:00,87.3,24.0,29.85,NNE,22,5.8,5.8,10,0.00,CLR,OVC,0.00,0.0,WeatherDisplay:10.37,2013-06-13 20:16:00,
2013-06-13 13:21:00,87.6,24.3,29.85,NNW,338,5.9,5.9,10,0.00,CLR,OVC,0.00,0.0,WeatherDisplay:10.37,2013-06-13 20:21:00,
2013-06-13 13:26:00,88.0,19.3,29.82,NW,315,6.6,6.6,8,0.00,CLR,OVC,0.00,0.0,WeatherDisplay:10.37,2013-06-13 20:26:00,
2013-06-13 13:31:00,88.7,19.8,29.82,NW,315,4.9,4.9,8,0.00,CLR,OVC,0.00,0.0,WeatherDisplay:10.37,2013-06-13 20:31:00,
2013-06-13 13:36:00,88.9,9.2,29.82,NW,315,6.9,6.9,5,0.00,CLR,OVC,0.00,0.0,WeatherDisplay:10.37,2013-06-13 20:36:00,
2013-06-13 13:41:00,89.4,20.3,29.82,NNE,22,3.5,3.5,8,0.00,CLR,OVC,0.00,0.0,WeatherDisplay:10.37,2013-06-13 20:41:00,
2013-06-13 13:46:00,88.9,9.2,29.85,NNE,22,6.9,6.9,5,0.00,CLR,OVC,0.00,0.0,WeatherDisplay:10.37,2013-06-13 20:46:00,
2013-06-13 13:51:00,87.8,8.4,29.85,NNE,22,9.2,9.2,5,0.00,CLR,OVC,0.00,0.0,WeatherDisplay:10.37,2013-06-13 20:51:00,
2013-06-13 13:56:00,88.7,9.1,29.85,NW,315,4.6,4.8,5,0.00,CLR,OVC,0.00,0.0,WeatherDisplay:10.37,2013-06-13 20:56:00,
2013-06-13 14:01:00,89.2,9.4,29.85,North,0,4.6,4.6,5,0.00,CLR,OVC,0.00,0.0,WeatherDisplay:10.37,2013-06-13 21:01:00,
2013-06-13 14:06:00,90.0,9.9,29.84,NNW,338,4.6,4.6,5,0.00,CLR,OVC,0.00,0.0,WeatherDisplay:10.37,2013-06-13 21:06:00,
2013-06-13 14:11:00,90.0,9.9,29.84,West,270,3.6,3.6,5,0.00,CLR,OVC,0.00,0.0,WeatherDisplay:10.37,2013-06-13 21:11:00,
2013-06-13 14:16:00,89.8,9.8,29.84,NNE,22,8.1,8.1,5,0.00,CLR,OVC,0.00,0.0,WeatherDisplay:10.37,2013-06-13 21:16:00,
2013-06-13 14:21:00,89.6,9.7,29.84,NW,315,6.9,6.9,5,0.00,CLR,OVC,0.00,0.0,WeatherDisplay:10.37,2013-06-13 21:21:00,
2013-06-13 14:26:00,88.9,9.2,29.84,West,270,6.9,6.9,5,0.00,CLR,OVC,0.00,0.0,WeatherDisplay:10.37,2013-06-13 21:26:00,
2013-06-13 14:31:00,89.1,9.3,29.84,ENE,68,5.8,5.8,5,0.00,CLR,OVC,0.00,0.0,WeatherDisplay:10.37,2013-06-13 21:31:00,
2013-06-13 14:36:00,90.0,9.9,29.84,SW,225,4.6,4.6,5,0.00,CLR,OVC,0.00,0.0,WeatherDisplay:10.37,2013-06-13 21:36:00,
2013-06-13 14:41:00,89.4,9.6,29.84,NNE,22,6.9,6.9,5,0.00,CLR,OVC,0.00,0.0,WeatherDisplay:10.37,2013-06-13 21:41:00,
2013-06-13 14:46:00,89.8,9.8,29.83,ESE,112,5.8,5.8,5,0.00,CLR,OVC,0.00,0.0,WeatherDisplay:10.37,2013-06-13 21:46:00,
2013-06-13 14:51:00,90.1,10.1,29.83,NNW,338,5.8,5.8,5,0.00,CLR,OVC,0.00,0.0,WeatherDisplay:10.37,2013-06-13 21:51:00,
2013-06-13 14:56:00,90.1,10.1,29.83,WNW,292,3.1,3.1,5,0.00,CLR,OVC,0.00,0.0,WeatherDisplay:10.37,2013-06-13 21:56:00,
2013-06-13 15:01:00,90.1,10.1,29.83,NW,315,4.8,4.8,5,0.00,CLR,OVC,0.00,0.0,WeatherDisplay:10.37,2013-06-13 22:01:00,
2013-06-13 15:06:00,90.3,10.2,29.82,NNE,22,3.5,3.5,5,0.00,CLR,OVC,0.00,0.0,WeatherDisplay:10.37,2013-06-13 22:06:00,
2013-06-13 15:11:00,90.3,10.2,29.82,NNE,22,5.8,5.8,5,0.00,CLR,OVC,0.00,0.0,WeatherDisplay:10.37,2013-06-13 22:11:00,
2013-06-13 15:16:00,90.0,9.9,29.82,NNE,22,4.9,4.9,5,0.00,CLR,OVC,0.00,0.0,WeatherDisplay:10.37,2013-06-13 22:16:00,
2013-06-13 15:21:00,90.1,10.1,29.82,NNE,22,4.6,4.6,5,0.00,CLR,OVC,0.00,0.0,WeatherDisplay:10.37,2013-06-13 22:21:00,
2013-06-13 15:26:00,90.9,10.6,29.81,WNW,292,4.7,4.7,5,0.00,CLR,OVC,0.00,0.0,WeatherDisplay:10.37,2013-06-13 22:26:00,
2013-06-13 15:31:00,90.7,10.5,29.81,WNW,292,5.8,5.8,5,0.00,CLR,OVC,0.00,0.0,WeatherDisplay:10.37,2013-06-13 22:31:00,
2013-06-13 15:36:00,91.6,11.1,29.81,ESE,112,2.3,3.1,5,0.00,CLR,OVC,0.00,0.0,WeatherDisplay:10.37,2013-06-13 22:36:00,
2013-06-13 15:41:00,91.8,11.2,29.81,NNW,338,4.6,4.6,5,0.00,CLR,OVC,0.00,0.0,WeatherDisplay:10.37,2013-06-13 22:41:00,
2013-06-13 15:46:00,91.9,11.3,29.80,NNE,22,7.6,7.6,5,0.00,CLR,OVC,0.00,0.0,WeatherDisplay:10.37,2013-06-13 22:46:00,
2013-06-13 15:51:00,91.0,10.7,29.80,NW,315,4.6,4.6,5,0.00,CLR,OVC,0.00,0.0,WeatherDisplay:10.37,2013-06-13 22:51:00,
2013-06-13 15:56:00,92.1,11.5,29.80,West,270,5.6,5.6,5,0.00,CLR,OVC,0.00,0.0,WeatherDisplay:10.37,2013-06-13 22:56:00,
2013-06-13 16:01:00,92.5,11.7,29.80,West,270,2.3,2.3,5,0.00,CLR,OVC,0.00,0.0,WeatherDisplay:10.37,2013-06-13 23:01:00,
2013-06-13 16:06:00,92.3,11.6,29.80,NW,315,5.1,5.1,5,0.00,CLR,OVC,0.00,0.0,WeatherDisplay:10.37,2013-06-13 23:06:00,
2013-06-13 16:11:00,92.8,12.0,29.80,North,0,4.6,4.6,5,0.00,CLR,OVC,0.00,0.0,WeatherDisplay:10.37,2013-06-13 23:11:00,
2013-06-13 16:16:00,92.3,11.6,29.80,NNE,22,4.6,4.6,5,0.00,CLR,OVC,0.00,0.0,WeatherDisplay:10.37,2013-06-13 23:16:00,
2013-06-13 16:21:00,92.1,11.5,29.80,WSW,248,4.6,4.6,5,0.00,CLR,OVC,0.00,0.0,WeatherDisplay:10.37,2013-06-13 23:21:00,
2013-06-13 16:26:00,91.9,11.3,29.79,NNW,338,2.3,2.9,5,0.00,CLR,OVC,0.00,0.0,WeatherDisplay:10.37,2013-06-13 23:26:00,
2013-06-13 16:31:00,92.1,11.5,29.79,NNW,338,3.5,3.5,5,0.00,CLR,OVC,0.00,0.0,WeatherDisplay:10.37,2013-06-13 23:31:00,
2013-06-13 16:36:00,92.8,12.0,29.79,West,270,3.6,3.6,5,0.00,CLR,OVC,0.00,0.0,WeatherDisplay:10.37,2013-06-13 23:36:00,
2013-06-13 16:41:00,93.2,12.2,29.79,NNW,338,3.5,3.5,5,0.00,CLR,OVC,0.00,0.0,WeatherDisplay:10.37,2013-06-13 23:41:00,
2013-06-13 16:46:00,92.1,11.5,29.78,NNW,338,4.9,4.9,5,0.00,CLR,OVC,0.00,0.0,WeatherDisplay:10.37,2013-06-13 23:46:00,
2013-06-13 16:51:00,91.8,11.2,29.78,NNE,22,3.5,3.5,5,0.00,CLR,OVC,0.00,0.0,WeatherDisplay:10.37,2013-06-13 23:51:00,
2013-06-13 16:56:00,91.6,11.1,29.78,NNE,22,4.6,4.6,5,0.00,CLR,OVC,0.00,0.0,WeatherDisplay:10.37,2013-06-13 23:56:00,
2013-06-13 17:01:00,91.4,11.0,29.78,NNE,22,6.9,6.9,5,0.00,CLR,OVC,0.00,0.0,WeatherDisplay:10.37,2013-06-14 00:01:00,
2013-06-13 17:06:00,90.9,10.6,29.78,NNW,338,3.5,3.5,5,0.00,CLR,OVC,0.00,0.0,WeatherDisplay:10.37,2013-06-14 00:06:00,
2013-06-13 17:11:00,90.7,10.5,29.78,North,0,4.6,4.6,5,0.00,CLR,OVC,0.00,0.0,WeatherDisplay:10.37,2013-06-14 00:11:00,
2013-06-13 17:16:00,90.5,10.3,29.78,NNE,22,5.2,5.2,5,0.00,CLR,OVC,0.00,0.0,WeatherDisplay:10.37,2013-06-14 00:16:00,
2013-06-13 17:21:00,90.7,10.5,29.78,SSE,158,6.9,6.9,5,0.00,CLR,OVC,0.00,0.0,WeatherDisplay:10.37,2013-06-14 00:21:00,
2013-06-13 17:26:00,90.9,10.6,29.78,SSW,202,3.5,3.5,5,0.00,CLR,OVC,0.00,0.0,WeatherDisplay:10.37,2013-06-14 00:26:00,
2013-06-13 17:31:00,90.9,10.6,29.78,WSW,248,4.7,4.7,5,0.00,CLR,OVC,0.00,0.0,WeatherDisplay:10.37,2013-06-14 00:31:00,
2013-06-13 17:36:00,91.6,11.1,29.78,WSW,248,1.2,1.7,5,0.00,CLR,OVC,0.00,0.0,WeatherDisplay:10.37,2013-06-14 00:36:00,
2013-06-13 17:41:00,91.9,11.3,29.78,SSE,158,3.5,3.5,5,0.00,CLR,OVC,0.00,0.0,WeatherDisplay:10.37,2013-06-14 00:41:00,
2013-06-13 17:46:00,90.5,10.3,29.77,NNW,338,4.9,4.9,5,0.00,CLR,OVC,0.00,0.0,WeatherDisplay:10.37,2013-06-14 00:46:00,
2013-06-13 17:51:00,90.0,9.9,29.77,NW,315,4.6,4.6,5,0.00,CLR,OVC,0.00,0.0,WeatherDisplay:10.37,2013-06-14 00:51:00,
2013-06-13 17:56:00,89.4,9.6,29.77,NNW,338,2.3,2.5,5,0.00,CLR,OVC,0.00,0.0,WeatherDisplay:10.37,2013-06-14 00:56:00,
2013-06-13 18:01:00,90.0,9.9,29.77,SW,225,2.3,2.3,5,0.00,CLR,OVC,0.00,0.0,WeatherDisplay:10.37,2013-06-14 01:01:00,
2013-06-13 18:06:00,89.2,9.4,29.77,NNE,22,3.5,3.5,5,0.00,CLR,OVC,0.00,0.0,WeatherDisplay:10.37,2013-06-14 01:06:00,
2013-06-13 18:11:00,89.1,9.3,29.77,WSW,248,2.3,2.5,5,0.00,CLR,OVC,0.00,0.0,WeatherDisplay:10.37,2013-06-14 01:11:00,
2013-06-13 18:16:00,89.1,9.3,29.77,NW,315,2.3,3.0,5,0.00,CLR,OVC,0.00,0.0,WeatherDisplay:10.37,2013-06-14 01:16:00,
2013-06-13 18:21:00,88.5,8.9,29.77,NW,315,2.3,2.3,5,0.00,CLR,OVC,0.00,0.0,WeatherDisplay:10.37,2013-06-14 01:21:00,
2013-06-13 18:26:00,87.6,8.3,29.77,NW,315,3.5,3.5,5,0.00,CLR,OVC,0.00,0.0,WeatherDisplay:10.37,2013-06-14 01:26:00,
2013-06-13 18:31:00,87.8,8.4,29.77,WSW,248,2.3,2.3,5,0.00,CLR,OVC,0.00,0.0,WeatherDisplay:10.37,2013-06-14 01:31:00,
2013-06-13 18:36:00,87.4,8.2,29.77,NNE,22,2.3,2.3,5,0.00,CLR,OVC,0.00,0.0,WeatherDisplay:10.37,2013-06-14 01:36:00,
2013-06-13 18:41:00,87.3,8.0,29.77,NNW,338,2.3,2.3,5,0.00,CLR,OVC,0.00,0.0,WeatherDisplay:10.37,2013-06-14 01:41:00,
2013-06-13 18:46:00,86.9,7.8,29.76,West,270,2.3,2.3,5,0.00,CLR,OVC,0.00,0.0,WeatherDisplay:10.37,2013-06-14 01:46:00,
2013-06-13 18:51:00,86.9,7.8,29.76,WSW,248,2.3,2.3,5,0.00,CLR,OVC,0.00,0.0,WeatherDisplay:10.37,2013-06-14 01:51:00,
2013-06-13 18:56:00,86.7,7.7,29.76,West,270,2.3,2.3,5,0.00,CLR,OVC,0.00,0.0,WeatherDisplay:10.37,2013-06-14 01:56:00,
2013-06-13 19:01:00,86.4,7.4,29.76,NNE,22,2.3,2.3,5,0.00,CLR,OVC,0.00,0.0,WeatherDisplay:10.37,2013-06-14 02:01:00,
2013-06-13 19:06:00,86.2,7.3,29.76,West,270,2.3,2.3,5,0.00,CLR,OVC,0.00,0.0,WeatherDisplay:10.37,2013-06-14 02:06:00,
2013-06-13 19:11:00,85.8,7.0,29.76,NW,315,2.3,2.3,5,0.00,CLR,OVC,0.00,0.0,WeatherDisplay:10.37,2013-06-14 02:11:00,
2013-06-13 19:16:00,85.6,6.9,29.76,WNW,292,1.2,1.6,5,0.00,CLR,OVC,0.00,0.0,WeatherDisplay:10.37,2013-06-14 02:16:00,
2013-06-13 19:21:00,85.6,6.9,29.76,WSW,248,2.3,2.3,5,0.00,CLR,OVC,0.00,0.0,WeatherDisplay:10.37,2013-06-14 02:21:00,
2013-06-13 19:26:00,85.5,6.8,29.76,West,270,2.2,2.2,5,0.00,CLR,OVC,0.00,0.0,WeatherDisplay:10.37,2013-06-14 02:26:00,
2013-06-13 19:31:00,85.3,6.7,29.76,NNW,338,1.6,1.6,5,0.00,CLR,OVC,0.00,0.0,WeatherDisplay:10.37,2013-06-14 02:31:00,
2013-06-13 19:36:00,84.9,6.4,29.76,NW,315,1.4,1.4,5,0.00,CLR,OVC,0.00,0.0,WeatherDisplay:10.37,2013-06-14 02:36:00,
2013-06-13 19:41:00,84.6,6.1,29.76,WNW,292,2.3,2.3,5,0.00,CLR,OVC,0.00,0.0,WeatherDisplay:10.37,2013-06-14 02:41:00,
2013-06-13 19:46:00,84.6,6.1,29.75,West,270,2.3,2.3,5,0.00,CLR,OVC,0.00,0.0,WeatherDisplay:10.37,2013-06-14 02:46:00,
2013-06-13 19:51:00,84.6,6.1,29.75,West,270,3.5,3.5,5,0.00,CLR,OVC,0.00,0.0,WeatherDisplay:10.37,2013-06-14 02:51:00,
2013-06-13 19:56:00,83.8,5.6,29.75,West,270,2.3,2.3,5,0.00,CLR,OVC,0.00,0.0,WeatherDisplay:10.37,2013-06-14 02:56:00,
2013-06-13 20:01:00,83.5,5.4,29.75,SW,225,4.6,4.6,5,0.00,CLR,OVC,0.00,0.0,WeatherDisplay:10.37,2013-06-14 03:01:00,
2013-06-13 20:06:00,82.9,5.0,29.76,WSW,248,3.5,3.5,5,0.00,CLR,OVC,0.00,0.0,WeatherDisplay:10.37,2013-06-14 03:06:00,
2013-06-13 20:11:00,82.6,4.7,29.76,SW,225,3.6,3.6,5,0.00,CLR,OVC,0.00,0.0,WeatherDisplay:10.37,2013-06-14 03:11:00,
2013-06-13 20:16:00,82.0,4.4,29.76,SSE,158,3.5,3.5,5,0.00,CLR,OVC,0.00,0.0,WeatherDisplay:10.37,2013-06-14 03:16:00,
2013-06-13 20:21:00,81.9,4.2,29.76,SW,225,4.8,4.8,5,0.00,CLR,OVC,0.00,0.0,WeatherDisplay:10.37,2013-06-14 03:21:00,
2013-06-13 20:26:00,81.3,3.9,29.76,SW,225,3.3,3.3,5,0.00,CLR,OVC,0.00,0.0,WeatherDisplay:10.37,2013-06-14 03:26:00,
2013-06-13 20:31:00,81.0,3.6,29.76,West,270,3.5,3.5,5,0.00,CLR,OVC,0.00,0.0,WeatherDisplay:10.37,2013-06-14 03:31:00,
2013-06-13 20:36:00,80.6,3.3,29.76,West,270,3.5,3.5,5,0.00,CLR,OVC,0.00,0.0,WeatherDisplay:10.37,2013-06-14 03:36:00,
2013-06-13 20:41:00,80.2,3.1,29.76,WSW,248,4.6,4.6,5,0.00,CLR,OVC,0.00,0.0,WeatherDisplay:10.37,2013-06-14 03:41:00,
2013-06-13 20:46:00,79.9,2.8,29.75,WSW,248,3.5,3.5,5,0.00,CLR,OVC,0.00,0.0,WeatherDisplay:10.37,2013-06-14 03:46:00,
2013-06-13 20:51:00,79.3,2.5,29.75,WSW,248,2.3,2.6,5,0.00,CLR,OVC,0.00,0.0,WeatherDisplay:10.37,2013-06-14 03:51:00,
2013-06-13 20:56:00,79.2,2.3,29.75,WSW,248,1.2,2.3,5,0.00,CLR,OVC,0.00,0.0,WeatherDisplay:10.37,2013-06-14 03:56:00,
2013-06-13 21:01:00,79.0,2.2,29.75,WSW,248,1.2,1.7,5,0.00,CLR,OVC,0.00,0.0,WeatherDisplay:10.37,2013-06-14 04:01:00,
2013-06-13 21:06:00,78.6,12.3,29.76,West,270,2.3,2.3,8,0.00,CLR,OVC,0.00,0.0,WeatherDisplay:10.37,2013-06-14 04:06:00,
2013-06-13 21:11:00,78.3,12.1,29.76,NW,315,3.5,3.5,8,0.00,CLR,OVC,0.00,0.0,WeatherDisplay:10.37,2013-06-14 04:11:00,
2013-06-13 21:16:00,77.9,11.8,29.76,WSW,248,1.2,2.0,8,0.00,CLR,OVC,0.00,0.0,WeatherDisplay:10.37,2013-06-14 04:16:00,
2013-06-13 21:21:00,77.4,16.5,29.76,WSW,248,4.6,4.6,10,0.00,CLR,OVC,0.00,0.0,WeatherDisplay:10.37,2013-06-14 04:21:00,
2013-06-13 21:26:00,77.2,16.3,29.76,WSW,248,3.5,3.5,10,0.00,CLR,OVC,0.00,0.0,WeatherDisplay:10.37,2013-06-14 04:26:00,
2013-06-13 21:31:00,76.6,18.1,29.76,West,270,2.3,2.3,11,0.00,CLR,OVC,0.00,0.0,WeatherDisplay:10.37,2013-06-14 04:31:00,
2013-06-13 21:36:00,76.3,19.9,29.76,WSW,248,2.3,2.6,12,0.00,CLR,OVC,0.00,0.0,WeatherDisplay:10.37,2013-06-14 04:36:00,
2013-06-13 21:41:00,75.7,23.1,29.76,WSW,248,2.3,2.5,14,0.00,CLR,OVC,0.00,0.0,WeatherDisplay:10.37,2013-06-14 04:41:00,
2013-06-13 21:46:00,75.7,23.1,29.76,West,270,4.6,4.6,14,0.00,CLR,OVC,0.00,0.0,WeatherDisplay:10.37,2013-06-14 04:46:00,
2013-06-13 21:51:00,75.2,25.9,29.76,WSW,248,4.6,4.6,16,0.00,CLR,OVC,0.00,0.0,WeatherDisplay:10.37,2013-06-14 04:51:00,
2013-06-13 21:56:00,75.0,27.2,29.76,WSW,248,2.3,2.5,17,0.00,CLR,OVC,0.00,0.0,WeatherDisplay:10.37,2013-06-14 04:56:00,
2013-06-13 22:01:00,74.8,29.8,29.76,West,270,2.3,2.3,19,0.00,CLR,OVC,0.00,0.0,WeatherDisplay:10.37,2013-06-14 05:01:00,
2013-06-13 22:06:00,74.7,29.6,29.77,West,270,0.0,2.0,19,0.00,CLR,OVC,0.00,0.0,WeatherDisplay:10.37,2013-06-14 05:06:00,
2013-06-13 22:11:00,74.3,30.6,29.77,SW,225,1.2,1.4,20,0.00,CLR,OVC,0.00,0.0,WeatherDisplay:10.37,2013-06-14 05:11:00,
2013-06-13 22:16:00,74.3,30.6,29.77,WSW,248,2.3,2.3,20,0.00,CLR,OVC,0.00,0.0,WeatherDisplay:10.37,2013-06-14 05:16:00,
2013-06-13 22:21:00,73.9,30.3,29.77,SW,225,2.3,2.3,20,0.00,CLR,OVC,0.00,0.0,WeatherDisplay:10.37,2013-06-14 05:21:00,
2013-06-13 22:26:00,73.6,30.0,29.77,SW,225,2.3,2.3,20,0.00,CLR,OVC,0.00,0.0,WeatherDisplay:10.37,2013-06-14 05:26:00,
2013-06-13 22:31:00,73.0,31.9,29.77,SW,225,3.5,3.5,22,0.00,CLR,OVC,0.00,0.0,WeatherDisplay:10.37,2013-06-14 05:31:00,
2013-06-13 22:36:00,72.9,31.8,29.77,SW,225,4.6,4.6,22,0.00,CLR,OVC,0.00,0.0,WeatherDisplay:10.37,2013-06-14 05:36:00,
2013-06-13 22:41:00,72.5,32.6,29.77,WSW,248,6.9,6.9,23,0.00,CLR,OVC,0.00,0.0,WeatherDisplay:10.37,2013-06-14 05:41:00,
2013-06-13 22:46:00,72.1,33.3,29.76,WSW,248,3.8,3.8,24,0.00,CLR,OVC,0.00,0.0,WeatherDisplay:10.37,2013-06-14 05:46:00,
2013-06-13 22:51:00,71.8,34.0,29.76,SSW,202,4.6,4.6,25,0.00,CLR,OVC,0.00,0.0,WeatherDisplay:10.37,2013-06-14 05:51:00,
2013-06-13 22:56:00,71.6,34.9,29.76,SW,225,2.5,2.6,26,0.00,CLR,OVC,0.00,0.0,WeatherDisplay:10.37,2013-06-14 05:56:00,
2013-06-13 23:01:00,71.2,37.3,29.76,WSW,248,3.5,3.5,29,0.00,CLR,OVC,0.00,0.0,WeatherDisplay:10.37,2013-06-14 06:01:00,
2013-06-13 23:06:00,70.9,37.9,29.76,SW,225,3.5,3.5,30,0.00,CLR,OVC,0.00,0.0,WeatherDisplay:10.37,2013-06-14 06:06:00,
2013-06-13 23:11:00,70.7,37.7,29.76,SW,225,2.3,2.8,30,0.00,CLR,OVC,0.00,0.0,WeatherDisplay:10.37,2013-06-14 06:11:00,
2013-06-13 23:16:00,70.7,37.7,29.76,WSW,248,2.6,2.6,30,0.00,CLR,OVC,0.00,0.0,WeatherDisplay:10.37,2013-06-14 06:16:00,
2013-06-13 23:21:00,70.5,38.4,29.76,SW,225,2.3,2.3,31,0.00,CLR,OVC,0.00,0.0,WeatherDisplay:10.37,2013-06-14 06:21:00,
2013-06-13 23:26:00,70.2,38.1,29.75,WSW,248,2.3,2.3,31,0.00,CLR,OVC,0.00,0.0,WeatherDisplay:10.37,2013-06-14 06:26:00,
2013-06-13 23:31:00,69.8,37.8,29.75,West,270,2.3,2.3,31,0.00,CLR,OVC,0.00,0.0,WeatherDisplay:10.37,2013-06-14 06:31:00,
2013-06-13 23:36:00,69.8,38.6,29.75,NW,315,1.2,1.7,32,0.00,CLR,OVC,0.00,0.0,WeatherDisplay:10.37,2013-06-14 06:36:00,
2013-06-13 23:41:00,69.6,38.4,29.75,West,270,2.3,2.3,32,0.00,CLR,OVC,0.00,0.0,WeatherDisplay:10.37,2013-06-14 06:41:00,
2013-06-13 23:46:00,69.4,38.3,29.76,West,270,1.2,1.3,32,0.00,CLR,OVC,0.00,0.0,WeatherDisplay:10.37,2013-06-14 06:46:00,
2013-06-13 23:51:00,69.3,38.1,29.76,WNW,292,1.2,1.2,32,0.00,CLR,OVC,0.00,0.0,WeatherDisplay:10.37,2013-06-14 06:51:00,
2013-06-13 23:56:00,69.3,38.9,29.76,NW,315,0.0,0.6,33,0.00,CLR,OVC,0.00,0.0,WeatherDisplay:10.37,2013-06-14 06:56:00,